This is the latest recevied weather packets stored in our database for station/object KE8AFF-13. If no packets are shown the sender has not sent any weather packets the latest 10 day(s).
| Time | Temp. | Humidity | Pressure | Rain* | Wind** | Luminosity | Snow |
|---|---|---|---|---|---|---|---|
| 1778180788 | 13.33° C | 48% | 1013.1 hPa | 0 mm | - | 813 W/m² | - |
| 1778180487 | 12.78° C | 51% | 1013 hPa | 0 mm | - | 837 W/m² | - |
| 1778180185 | 12.78° C | 50% | 1013 hPa | 0 mm | - | 803 W/m² | - |
| 1778179881 | 12.22° C | 50% | 1013.2 hPa | 0 mm | - | 189 W/m² | - |
| 1778179579 | 12.78° C | 51% | 1013 hPa | 0 mm | - | 238 W/m² | - |
| 1778179277 | 12.78° C | 53% | 1013.2 hPa | 0 mm | - | 833 W/m² | - |
| 1778178973 | 12.78° C | 51% | 1013.1 hPa | 0 mm | - | 849 W/m² | - |
| 1778178670 | 12.78° C | 51% | 1013.2 hPa | 0 mm | - | 787 W/m² | - |
| 1778178366 | 12.78° C | 49% | 1013.2 hPa | 0 mm | - | 799 W/m² | - |
| 1778178062 | 12.78° C | 48% | 1013.1 hPa | 0 mm | - | 757 W/m² | - |
| 1778177759 | 12.78° C | 50% | 1013 hPa | 0 mm | - | 760 W/m² | - |
| 1778177455 | 12.22° C | 55% | 1013.3 hPa | 0 mm | - | 762 W/m² | - |
| 1778177152 | 12.78° C | 52% | 1013.5 hPa | 0 mm | - | 842 W/m² | - |
| 1778176849 | 12.22° C | 53% | 1013.1 hPa | 0 mm | - | 829 W/m² | - |
| 1778176545 | 12.22° C | 55% | 1013.6 hPa | 0 mm | - | 806 W/m² | - |
| 1778176243 | 12.78° C | 53% | 1013.5 hPa | 0 mm | - | 402 W/m² | - |
| 1778175939 | 11.67° C | 56% | 1013.5 hPa | 0 mm | - | 841 W/m² | - |
| 1778175637 | 12.22° C | 57% | 1013.5 hPa | 0 mm | - | 650 W/m² | - |
| 1778175334 | 11.67° C | 56% | 1013.8 hPa | 0 mm | - | 807 W/m² | - |
| 1778175031 | 12.22° C | 56% | 1013.6 hPa | 0 mm | - | 561 W/m² | - |
| 1778174727 | 12.22° C | 54% | 1013.6 hPa | 0 mm | - | 805 W/m² | - |
| 1778174424 | 11.67° C | 56% | 1013.8 hPa | 0 mm | - | 822 W/m² | - |
| 1778174119 | 11.67° C | 57% | 1013.9 hPa | 0 mm | - | 832 W/m² | - |
| 1778173817 | 11.67° C | 57% | 1014 hPa | 0 mm | - | 920 W/m² | - |
| 1778173513 | 11.67° C | 56% | 1014 hPa | 0 mm | - | 836 W/m² | - |
* Rain latest hour (hover to see other rain measurements)
** Current wind speed in m/s (hover to see current wind gust speed)